| time (UTC) | temp F | wind direction | speed MPH | gust MPH | rain 1hr in | rain 24hr in | rain mn in | humidity % | barometer mb |
| 20260510191556 | 67 | 346 | 0.0 | 0.0 | 0.00 | 0.17 | 0.00 | 49 | 1018.9 |
| 20260510190105 | 66 | 339 | 0.0 | 0.0 | 0.00 | 0.17 | 0.00 | 48 | 1018.8 |
| 20260510184605 | 65 | 9 | 0.0 | 0.0 | 0.00 | 0.17 | 0.00 | 43 | 1018.6 |
| 20260510183056 | 67 | 32 | 0.0 | 0.0 | 0.00 | 0.17 | 0.00 | 46 | 1018.7 |
| 20260510181610 | 67 | 13 | 0.0 | 0.0 | 0.00 | 0.17 | 0.00 | 47 | 1018.6 |
| 20260510180052 | 66 | 5 | 0.0 | 0.0 | 0.00 | 0.17 | 0.00 | 44 | 1018.4 |
| 20260510174554 | 65 | 28 | 0.0 | 0.0 | 0.00 | 0.17 | 0.00 | 50 | 1018.7 |
| 20260510173041 | 64 | 331 | 0.0 | 0.0 | 0.00 | 0.17 | 0.00 | 50 | 1018.8 |
| 20260510171556 | 63 | 333 | 0.0 | 0.0 | 0.00 | 0.17 | 0.00 | 51 | 1019.0 |
| 20260510170046 | 64 | 338 | 0.0 | 0.0 | 0.00 | 0.17 | 0.00 | 54 | 1019.0 |
| 20260510164535 | 63 | 288 | 0.0 | 0.0 | 0.00 | 0.17 | 0.00 | 62 | 1019.1 |
| 20260510163043 | 61 | 295 | 0.0 | 0.0 | 0.00 | 0.17 | 0.00 | 62 | 1019.0 |
| 20260510161533 | 61 | 327 | 0.0 | 0.0 | 0.00 | 0.17 | 0.00 | 59 | 1019.2 |
| 20260510160039 | 61 | 10 | 0.0 | 0.0 | 0.00 | 0.17 | 0.00 | 58 | 1019.2 |
| 20260510154533 | 60 | 317 | 0.0 | 0.0 | 0.00 | 0.17 | 0.00 | 63 | 1019.1 |
| 20260510153037 | 59 | 350 | 0.0 | 0.0 | 0.00 | 0.17 | 0.00 | 67 | 1019.1 |
| 20260510151528 | 59 | 331 | 0.0 | 0.0 | 0.00 | 0.17 | 0.00 | 69 | 1018.8 |
| 20260510150025 | 59 | 309 | 0.0 | 0.0 | 0.00 | 0.17 | 0.00 | 69 | 1018.6 |
| 20260510144525 | 59 | 342 | 0.0 | 0.0 | 0.00 | 0.17 | 0.00 | 67 | 1018.6 |
| 20260510143021 | 58 | 271 | 0.0 | 0.0 | 0.00 | 0.17 | 0.00 | 67 | 1018.3 |
| 20260510141519 | 59 | 355 | 5.0 | 7.0 | 0.00 | 0.17 | 0.00 | 65 | 1018.1 |
| 20260510140022 | 59 | 335 | 4.0 | 8.0 | 0.00 | 0.17 | 0.00 | 68 | 1017.7 |
| 20260510134517 | 58 | 343 | 4.0 | 7.0 | 0.00 | 0.17 | 0.00 | 69 | 1017.7 |
| 20260510133016 | 58 | 330 | 3.0 | 9.0 | 0.00 | 0.17 | 0.00 | 72 | 1017.5 |
| 20260510131513 | 57 | 350 | 2.0 | 6.0 | 0.00 | 0.17 | 0.00 | 75 | 1017.6 |
| 20260510130014 | 56 | 311 | 0.0 | 5.0 | 0.00 | 0.17 | 0.00 | 76 | 1017.3 |
| 20260510124509 | 55 | 290 | 2.0 | 5.0 | 0.00 | 0.17 | 0.00 | 80 | 1017.2 |
| 20260510123007 | 55 | 355 | 2.0 | 8.0 | 0.00 | 0.17 | 0.00 | 82 | 1016.8 |
| 20260510121503 | 54 | 345 | 2.0 | 5.0 | 0.00 | 0.17 | 0.00 | 87 | 1016.7 |
| 20260510120003 | 54 | 348 | 0.0 | 3.0 | 0.00 | 0.17 | 0.00 | 90 | 1016.5 |
| 20260510114621 | 53 | 348 | 1.0 | 3.0 | 0.00 | 0.17 | 0.00 | 90 | 1016.1 |
| 20260510113101 | 53 | 348 | 0.0 | 0.0 | 0.00 | 0.17 | 0.00 | 90 | 1015.7 |
| 20260510111555 | 53 | 348 | 0.0 | 3.0 | 0.00 | 0.17 | 0.00 | 91 | 1015.3 |
| 20260510110100 | 53 | 300 | 0.0 | 3.0 | 0.00 | 0.17 | 0.00 | 92 | 1015.1 |
| 20260510104550 | 53 | 329 | 0.0 | 3.0 | 0.00 | 0.17 | 0.00 | 92 | 1014.8 |
| 20260510103053 | 53 | 329 | 0.0 | 0.0 | 0.00 | 0.17 | 0.00 | 93 | 1014.6 |
| 20260510101557 | 54 | 330 | 0.0 | 0.0 | 0.00 | 0.17 | 0.00 | 93 | 1014.3 |
| 20260510100050 | 54 | 330 | 0.0 | 0.0 | 0.00 | 0.17 | 0.00 | 94 | 1014.0 |
| 20260510094548 | 55 | 329 | 0.0 | 0.0 | 0.00 | 0.17 | 0.00 | 95 | 1013.9 |
| 20260510093040 | 55 | 329 | 0.0 | 3.0 | 0.00 | 0.17 | 0.00 | 95 | 1013.7 |
| 20260510091535 | 56 | 329 | 0.0 | 3.0 | 0.00 | 0.17 | 0.00 | 95 | 1013.6 |
| 20260510090034 | 56 | 329 | 0.0 | 4.0 | 0.00 | 0.17 | 0.00 | 95 | 1013.5 |
| 20260510084534 | 57 | 329 | 2.0 | 3.0 | 0.00 | 0.17 | 0.00 | 95 | 1013.1 |
| 20260510083029 | 57 | 329 | 0.0 | 0.0 | 0.00 | 0.17 | 0.00 | 95 | 1012.7 |
| 20260510081536 | 57 | 329 | 0.0 | 0.0 | 0.00 | 0.17 | 0.00 | 95 | 1012.5 |
| 20260510080038 | 58 | 329 | 0.0 | 0.0 | 0.00 | 0.17 | 0.00 | 95 | 1012.3 |
| 20260510074524 | 58 | 329 | 0.0 | 0.0 | 0.00 | 0.17 | 0.00 | 95 | 1011.9 |
| 20260510073034 | 58 | 329 | 1.0 | 3.0 | 0.00 | 0.17 | 0.00 | 95 | 1011.9 |
| 20260510071519 | 59 | 331 | 1.0 | 3.0 | 0.00 | 0.17 | 0.00 | 95 | 1012.0 |
| 20260510070017 | 59 | 331 | 0.0 | 2.0 | 0.00 | 0.17 | 0.00 | 95 | 1011.9 |
| 20260510064517 | 59 | 331 | 0.0 | 0.0 | 0.00 | 0.17 | 0.00 | 95 | 1012.0 |
| 20260510063018 | 59 | 331 | 0.0 | 2.0 | 0.00 | 0.17 | 0.00 | 95 | 1011.8 |
| 20260510061515 | 59 | 331 | 0.0 | 1.0 | 0.00 | 0.17 | 0.00 | 95 | 1011.7 |
| 20260510060031 | 59 | 331 | 0.0 | 3.0 | 0.00 | 0.17 | 0.00 | 95 | 1012.0 |
| 20260510054516 | 60 | 335 | 1.0 | 5.0 | 0.00 | 0.17 | 0.00 | 95 | 1011.7 |
| 20260510053007 | 60 | 338 | 2.0 | 6.0 | 0.01 | 0.17 | 0.00 | 94 | 1011.3 |
| 20260510051505 | 60 | 330 | 0.0 | 6.0 | 0.01 | 0.17 | 0.00 | 94 | 1011.0 |
| 20260510050008 | 61 | 319 | 1.0 | 4.0 | 0.04 | 0.17 | 0.00 | 94 | 1011.3 |
| 20260510044503 | 61 | 52 | 2.0 | 4.0 | 0.06 | 0.17 | 0.17 | 94 | 1010.8 |
| 20260510043001 | 61 | 54 | 0.0 | 3.0 | 0.07 | 0.16 | 0.16 | 94 | 1010.5 |
| 20260510041610 | 61 | 50 | 0.0 | 5.0 | 0.09 | 0.16 | 0.16 | 93 | 1010.6 |
| 20260510040113 | 61 | 309 | 2.0 | 5.0 | 0.08 | 0.13 | 0.13 | 92 | 1011.3 |
| 20260510034600 | 61 | 51 | 2.0 | 6.0 | 0.11 | 0.12 | 0.11 | 92 | 1010.7 |
| 20260510033105 | 62 | 342 | 2.0 | 5.0 | 0.09 | 0.10 | 0.09 | 91 | 1011.3 |
| 20260510031604 | 62 | 355 | 0.0 | 0.0 | 0.07 | 0.08 | 0.07 | 89 | 1011.4 |
| 20260510024554 | 70 | 253 | 0.0 | 0.0 | 0.00 | 0.17 | 0.00 | 66 | 1010.3 |
| 20260510023053 | 71 | 236 | 0.0 | 0.0 | 0.00 | 0.17 | 0.00 | 62 | 1008.3 |
| 20260510021641 | 72 | 236 | 0.0 | 0.0 | 0.00 | 0.17 | 0.00 | 61 | 1008.0 |
| 20260510020057 | 72 | 236 | 0.0 | 0.0 | 0.00 | 0.17 | 0.00 | 59 | 1007.8 |
| 20260510014558 | 73 | 236 | 0.0 | 0.0 | 0.00 | 0.32 | 0.00 | 56 | 1007.5 |
| 20260510013100 | 75 | 236 | 0.0 | 0.0 | 0.00 | 0.32 | 0.00 | 53 | 1007.3 |
| 20260510011551 | 76 | 236 | 0.0 | 0.0 | 0.00 | 0.32 | 0.00 | 47 | 1007.2 |
| 20260510010057 | 78 | 273 | 0.0 | 0.0 | 0.00 | 0.32 | 0.00 | 46 | 1007.2 |
| 20260510004550 | 79 | 273 | 0.0 | 0.0 | 0.00 | 0.33 | 0.00 | 44 | 1007.1 |
| 20260510003050 | 80 | 273 | 0.0 | 0.0 | 0.00 | 0.33 | 0.00 | 41 | 1007.0 |
| 20260510001549 | 81 | 281 | 0.0 | 0.0 | 0.00 | 0.33 | 0.00 | 41 | 1006.9 |
| 20260510000050 | 81 | 281 | 0.0 | 0.0 | 0.00 | 0.33 | 0.00 | 40 | 1006.9 |
| 20260509234548 | 82 | 236 | 0.0 | 0.0 | 0.00 | 0.34 | 0.00 | 39 | 1006.8 |
| 20260509233047 | 82 | 234 | 0.0 | 0.0 | 0.00 | 0.34 | 0.00 | 39 | 1006.8 |
| 20260509231549 | 81 | 202 | 0.0 | 0.0 | 0.00 | 0.34 | 0.00 | 38 | 1006.8 |
| 20260509230050 | 81 | 263 | 0.0 | 0.0 | 0.00 | 0.34 | 0.00 | 40 | 1006.7 |
| 20260509224544 | 82 | 293 | 0.0 | 0.0 | 0.00 | 0.34 | 0.00 | 41 | 1006.7 |
| 20260509223042 | 81 | 198 | 0.0 | 0.0 | 0.00 | 0.34 | 0.00 | 39 | 1006.8 |
| 20260509221542 | 81 | 257 | 0.0 | 0.0 | 0.00 | 0.34 | 0.00 | 40 | 1006.8 |
| 20260509220040 | 81 | 254 | 0.0 | 0.0 | 0.00 | 0.34 | 0.00 | 41 | 1006.7 |
| 20260509214542 | 80 | 284 | 0.0 | 0.0 | 0.00 | 0.34 | 0.00 | 38 | 1006.8 |
| 20260509213040 | 81 | 275 | 0.0 | 0.0 | 0.00 | 0.34 | 0.00 | 40 | 1006.8 |
| 20260509211538 | 80 | 275 | 0.0 | 0.0 | 0.00 | 0.34 | 0.00 | 39 | 1007.0 |
| 20260509210044 | 80 | 259 | 0.0 | 0.0 | 0.00 | 0.34 | 0.00 | 39 | 1007.2 |
| 20260509204538 | 80 | 209 | 0.0 | 0.0 | 0.00 | 0.34 | 0.00 | 39 | 1007.2 |
| 20260509203035 | 80 | 257 | 0.0 | 0.0 | 0.00 | 0.34 | 0.00 | 43 | 1007.3 |
| 20260509201537 | 79 | 296 | 0.0 | 0.0 | 0.00 | 0.34 | 0.00 | 41 | 1007.5 |
| 20260509200033 | 79 | 264 | 0.0 | 0.0 | 0.00 | 0.34 | 0.00 | 44 | 1007.6 |
| 20260509194544 | 78 | 260 | 0.0 | 0.0 | 0.00 | 0.34 | 0.00 | 40 | 1007.6 |
| 20260509193027 | 78 | 180 | 0.0 | 0.0 | 0.00 | 0.34 | 0.00 | 49 | 1007.6 |